Weather History for KFHU - April, 2014

Change the Weather History Date:

Saturday, April 5, 2014

  Actual Average Record
Temperature  
Mean Temperature 55 °F -  
Max Temperature 64 °F 68 °F 87 °F (2011)
Min Temperature 46 °F 46 °F 30 °F (1999)
Degree Days  
Heating Degree Days 10    
Growing Degree Days 5 (Base 50)    
Moisture  
Dew Point 16 °F    
Average Humidity 22    
Maximum Humidity 33    
Minimum Humidity 15    
Precipitation  
Precipitation 0.00 in - - ()
Sea Level Pressure  
Sea Level Pressure 29.82 in    
Wind  
Wind Speed 11 mph (West)    
Max Wind Speed 22 mph    
Max Gust Speed 29 mph    
Visibility 10 miles    
Events      
Averages and records for this station are not official NWS values.
T = Trace of Precipitation, MM = Missing Value Source: NWS Daily Summary

Daily Weather History Graph

Daily Weather History Graph

Search for Another Location

Airport or City:

Trip Planner

Search our weather history database for the weather conditions in past years. The results will help you decide how hot, cold, wet, or windy it might be!

Date:

Astronomy

Apr. 05, 2014 Rise Set
Actual Time 6:04 AM MST 6:43 PM MST
Civil Twilight 5:40 AM MST 7:08 PM MST
Nautical Twilight 5:11 AM MST 7:37 PM MST
Astronomical Twilight 4:41 AM MST 8:06 PM MST
Moon 10:28 AM MST No Moon Set
Length of Visible Light 13h 27m
Length of Day
12h 38m
Waxing Crescent, 35% of the Moon is Illuminated
Apr 5
Waxing Crescent
Apr 7
First Quarter
Apr 15
Full
Apr 22
Last Quarter
Apr 28
New

Hourly Weather History & Observations

Time (MST) Temp. Dew Point Humidity Pressure Visibility Wind Dir Wind Speed Gust Speed Precip Events Conditions
12:56 AM 48.9 °F 16.0 °F 27% 29.80 in 10.0 mi West 13.8 mph - N/A   Clear
1:56 AM 50.0 °F 14.0 °F 24% 29.79 in 10.0 mi WNW 12.7 mph - N/A   Clear
2:56 AM 51.1 °F 16.0 °F 25% 29.77 in 10.0 mi West 4.6 mph - N/A   Clear
3:56 AM 46.9 °F 14.0 °F 27% 29.77 in 10.0 mi SW 8.1 mph - N/A   Clear
4:56 AM 48.0 °F 12.0 °F 24% 29.77 in 10.0 mi WSW 4.6 mph - N/A   Clear
5:56 AM 46.9 °F 10.9 °F 23% 29.81 in 10.0 mi West 8.1 mph - N/A   Clear
6:56 AM 50.0 °F 10.9 °F 21% 29.82 in 10.0 mi North - - N/A   Clear
7:56 AM 53.1 °F 12.0 °F 20% 29.83 in 10.0 mi WSW 9.2 mph - N/A   Clear
8:56 AM 55.0 °F 16.0 °F 22% 29.83 in 10.0 mi West 11.5 mph - N/A   Clear
9:56 AM 57.9 °F 19.0 °F 22% 29.83 in 10.0 mi West 9.2 mph - N/A   Clear
10:56 AM 59.0 °F 18.0 °F 20% 29.82 in 10.0 mi Variable 5.8 mph - N/A   Clear
11:56 AM 59.0 °F 17.1 °F 20% 29.81 in 10.0 mi WSW 13.8 mph 24.2 mph N/A   Mostly Cloudy
12:56 PM 62.1 °F 17.1 °F 18% 29.81 in 10.0 mi Variable 4.6 mph - N/A   Partly Cloudy
1:36 PM 64.4 °F 17.6 °F 16% 29.89 in 10.0 mi West 21.9 mph 28.8 mph N/A   Mostly Cloudy
1:56 PM 64.0 °F 16.0 °F 16% 29.78 in 10.0 mi West 10.4 mph 27.6 mph N/A   Mostly Cloudy
2:56 PM 64.0 °F 16.0 °F 16% 29.77 in 10.0 mi WSW 20.7 mph 25.3 mph N/A   Mostly Cloudy
3:56 PM 62.1 °F 15.1 °F 16% 29.78 in 10.0 mi West 16.1 mph 25.3 mph N/A   Overcast
4:56 PM 61.0 °F 12.9 °F 15% 29.78 in 10.0 mi WSW 15.0 mph 25.3 mph N/A   Scattered Clouds
5:56 PM 59.0 °F 15.1 °F 18% 29.80 in 10.0 mi NW 10.4 mph 19.6 mph N/A   Mostly Cloudy
6:56 PM 55.9 °F 17.1 °F 22% 29.81 in 10.0 mi WNW 3.5 mph - N/A   Partly Cloudy
7:56 PM 53.1 °F 19.9 °F 27% 29.84 in 10.0 mi WSW 8.1 mph - N/A   Scattered Clouds
8:56 PM 52.0 °F 19.9 °F 28% 29.86 in 10.0 mi WSW 9.2 mph - N/A   Clear
9:56 PM 51.1 °F 19.9 °F 29% 29.87 in 10.0 mi West 9.2 mph - N/A   Overcast
10:56 PM 50.0 °F 19.0 °F 29% 29.89 in 10.0 mi West 12.7 mph - N/A   Scattered Clouds
11:56 PM 48.9 °F 21.0 °F 33% 29.90 in 10.0 mi West 11.5 mph - N/A   Clear